Weather History for Adana, Turkey

Change the Weather History Date:

Monday, March 18, 2013

  Actual Average Record
Temperature  
Mean Temperature 50 °F -  
Max Temperature 64 °F 69 °F 75 °F (2001)
Min Temperature 37 °F 49 °F 33 °F (2012)
Degree Days  
Heating Degree Days 14    
Moisture  
Dew Point 28 °F    
Average Humidity 44    
Maximum Humidity 76    
Minimum Humidity 16    
Precipitation  
Precipitation 0.00 in 0.08 in - ()
Sea Level Pressure  
Sea Level Pressure 30.04 in    
Wind  
Wind Speed 5 mph ()    
Max Wind Speed 13 mph    
Max Gust Speed -    
Visibility 5.6 miles    
Events      
Averages and records for this station are not official NWS values.
T = Trace of Precipitation, MM = Missing Value Source: Averaged Metar Reports

Daily Weather History Graph

Daily Weather History Graph

Search for Another Location

Airport:

Trip Planner

Search our weather history database for the weather conditions in past years. The results will help you decide how hot, cold, wet, or windy it might be!

Date:

Astronomy

Mar. 18, 2013 Rise Set
Actual Time 5:45 AM EET 5:48 PM EET
Civil Twilight 5:19 AM EET 6:14 PM EET
Nautical Twilight 4:49 AM EET 6:44 PM EET
Astronomical Twilight 4:18 AM EET 7:15 PM EET
Moon 9:36 AM EET No Moon Set
Length of Visible Light 12h 55m
Length of Day
12h 03m
Waxing Crescent, 38% of the Moon is Illuminated
Mar 18
Waxing Crescent
Mar 19
First Quarter
Mar 27
Full
Apr 3
Last Quarter
Apr 10
New

Hourly Weather History & Observations

Time (EET) Temp. Windchill Dew Point Humidity Pressure Visibility Wind Dir Wind Speed Gust Speed Precip Events Conditions
12:20 AM 53.6 °F - 21.2 °F 28% 29.95 in 6.2 mi North 9.2 mph - N/A   Scattered Clouds
1:20 AM 46.4 °F 43.5 °F 28.4 °F 50% 29.98 in 6.2 mi ENE 5.8 mph - N/A   Scattered Clouds
1:50 AM 44.6 °F - 28.4 °F 53% 29.98 in 6.2 mi Variable 2.3 mph - N/A   Scattered Clouds
2:20 AM 46.4 °F 44.3 °F 28.4 °F 50% 29.98 in 6.2 mi NE 4.6 mph - N/A   Scattered Clouds
2:50 AM 46.4 °F 42.4 °F 30.2 °F 53% 29.98 in 6.2 mi NNE 8.1 mph - N/A   Partly Cloudy
3:20 AM 44.6 °F 43.1 °F 28.4 °F 53% 29.98 in 6.2 mi ESE 3.5 mph - N/A   Scattered Clouds
3:50 AM 44.6 °F - 28.4 °F 53% 29.98 in 6.2 mi NE 2.3 mph - N/A   Partly Cloudy
4:20 AM 39.2 °F 35.9 °F 30.2 °F 70% 30.01 in 6.2 mi WSW 4.6 mph - N/A   Partly Cloudy
4:50 AM 39.2 °F - 30.2 °F 70% 30.01 in 6.2 mi Variable 2.3 mph - N/A   Scattered Clouds
5:20 AM 39.2 °F - 30.2 °F 70% 30.01 in 6.2 mi Calm Calm - N/A   Scattered Clouds
5:50 AM 37.4 °F - 30.2 °F 75% 30.04 in 6.2 mi Variable 2.3 mph - N/A   Scattered Clouds
6:20 AM 41.0 °F - 32.0 °F 70% 30.04 in 6.2 mi Calm Calm - N/A   Scattered Clouds
6:50 AM 44.6 °F - 35.6 °F 71% 30.04 in 6.2 mi Calm Calm - N/A   Scattered Clouds
7:20 AM 51.8 °F - 28.4 °F 41% 30.06 in 6.2 mi NNE 4.6 mph - N/A   Scattered Clouds
7:50 AM 53.6 °F - 26.6 °F 35% 30.06 in 6.2 mi NNE 10.4 mph - N/A   Partly Cloudy
8:20 AM 55.4 °F - 26.6 °F 33% 30.06 in 6.2 mi NNE 10.4 mph - N/A   Partly Cloudy
8:50 AM 57.2 °F - 23.0 °F 27% 30.06 in 6.2 mi NNE 10.4 mph - N/A   Partly Cloudy
9:20 AM 59.0 °F - 23.0 °F 25% 30.06 in 6.2 mi NNE 10.4 mph - N/A   Partly Cloudy
9:50 AM 59.0 °F - 23.0 °F 25% 30.06 in 6.2 mi NNE 11.5 mph - N/A   Partly Cloudy
10:20 AM 59.0 °F - 19.4 °F 22% 30.06 in 6.2 mi NE 11.5 mph - N/A   Partly Cloudy
10:50 AM 60.8 °F - 19.4 °F 20% 30.06 in 6.2 mi NNE 9.2 mph - N/A   Partly Cloudy
11:20 AM 60.8 °F - 21.2 °F 22% 30.06 in 6.2 mi ENE 5.8 mph - N/A   Partly Cloudy
11:50 AM 60.8 °F - 19.4 °F 20% 30.06 in 6.2 mi Variable 6.9 mph - N/A   Partly Cloudy
12:20 PM 60.8 °F - 19.4 °F 20% 30.04 in 6.2 mi Variable 3.5 mph - N/A   Partly Cloudy
12:50 PM 62.6 °F - 21.2 °F 20% 30.04 in 6.2 mi Variable 5.8 mph - N/A   Partly Cloudy
1:20 PM 62.6 °F - 19.4 °F 19% 30.04 in 6.2 mi Variable 4.6 mph - N/A   Partly Cloudy
1:50 PM 64.4 °F - 19.4 °F 18% 30.04 in 6.2 mi Variable 3.5 mph - N/A   Partly Cloudy
2:20 PM 64.4 °F - 17.6 °F 16% 30.04 in 6.2 mi Variable 3.5 mph - N/A   Partly Cloudy
2:50 PM 62.6 °F - 15.8 °F 16% 30.04 in 6.2 mi Variable 3.5 mph - N/A   Partly Cloudy
3:20 PM 64.4 °F - 26.6 °F 24% 30.01 in 6.2 mi Variable 3.5 mph - N/A   Partly Cloudy
3:50 PM 60.8 °F - 28.4 °F 29% 30.04 in 6.2 mi SW 12.7 mph - N/A   Partly Cloudy
4:20 PM 60.8 °F - 30.2 °F 31% 30.01 in 6.2 mi SW 10.4 mph - N/A   Partly Cloudy
4:50 PM 59.0 °F - 30.2 °F 34% 30.04 in 6.2 mi WSW 11.5 mph - N/A   Partly Cloudy
5:20 PM 57.2 °F - 30.2 °F 36% 30.04 in 6.2 mi SW 11.5 mph - N/A   Partly Cloudy
5:50 PM 53.6 °F - 32.0 °F 44% 30.04 in 6.2 mi SW 8.1 mph - N/A   Partly Cloudy
6:20 PM 53.6 °F - 30.2 °F 41% 30.04 in 6.2 mi WSW 5.8 mph - N/A   Partly Cloudy
6:50 PM 51.8 °F - 33.8 °F 50% 30.06 in 6.2 mi South 5.8 mph - N/A   Partly Cloudy
7:20 PM 50.0 °F - 33.8 °F 54% 30.06 in 6.2 mi SW 6.9 mph - N/A   Partly Cloudy
7:50 PM 50.0 °F - 33.8 °F 54% 30.06 in 3.1 mi South 3.5 mph - N/A   Haze
8:20 PM 50.0 °F - 33.8 °F 54% 30.06 in 3.1 mi Variable 2.3 mph - N/A   Haze
8:50 PM 46.4 °F 45.2 °F 33.8 °F 62% 30.06 in 3.1 mi SE 3.5 mph - N/A   Haze
9:20 PM 46.4 °F 44.3 °F 33.8 °F 62% 30.06 in 3.1 mi SSE 4.6 mph - N/A   Haze
9:50 PM 46.4 °F - 35.6 °F 66% 30.06 in 3.1 mi Variable 1.2 mph - N/A   Haze
10:20 PM 46.4 °F - 33.8 °F 62% 30.06 in 3.1 mi NNE 1.2 mph - N/A   Haze
10:50 PM 46.4 °F 45.2 °F 33.8 °F 62% 30.06 in 3.1 mi ENE 3.5 mph - N/A   Haze
11:20 PM 44.6 °F 42.2 °F 35.6 °F 71% 30.06 in 3.1 mi ESE 4.6 mph - N/A   Partly Cloudy
11:50 PM 44.6 °F 43.1 °F 37.4 °F 76% 30.06 in 3.1 mi NE 3.5 mph - N/A   Partly Cloudy